GSAT0214 (GALILEO 18)

Last updated on Fri Jun 19 2026 17:09:21 GMT+0000 (Coordinated Universal Time)

1 41862U 16069D 26169.87201710 -.00000012 00000+0 00000+0 0 9995 2 41862 55.4996 101.0352 0004721 311.5610 48.3755 1.70473520 59672
UTC large
Height (km)
Speed (km/s)
/
Latitude / Longitude
Inclination (degrees)
Orbital Period (minutes)
Azimuth
Elevation
Range (km)
Doppler Factor

Next 0 passes for location: London (51.5072 / 0.1276)

No passes found over London.
GSAT0214 (GALILEO 18)